Zurück zum Katalog

CZ-6A DEB

AktivSSO
NORAD 54943·DEBRIS·🇨🇳 China

Gestartet Nov 11, 2022 von Taiyuan Satellite Launch Center

Loading…

Nächste Überflüge (nächste 24 Stunden)

TLE

AktuellSource: Space-Track

Epoche: Sep 14, 2026, 06:45 UTC

1 54943U 22151SG  26257.28156896  .00002146  00000-0  88331-3 0  9992
2 54943  98.7914 279.8956 0019852  16.3711 343.8107 14.27890825198566

Verfolge CZ-6A DEB in Echtzeit mit AllMySat

Download on the App Store